Regional Weather Roundup
Issued by NWS Goodland, KS

Home | Current Version | Previous Version | Text Only | Print | Product List | Glossary Off
Versions: 1 2 3 4 5 6 7 8 9 10 11 12 13 14 15 16 17 18 19 20 21 22 23 24 25 26 27 28 29 30 31 32 33 34 35 36 37 38 39 40 41 42 43 44 45 46 47 48 49 50

000
ASUS43 KGLD 222308
RWRGLD

GOODLAND FORECAST AREA HOURLY WEATHER ROUNDUP
NATIONAL WEATHER SERVICE GOODLAND KS
500 PM MDT WED MAR 22 2017

...OFFICIAL OBSERVATIONS...

CITY           SKY/WX    TMP DP  RH WIND       PRES   REMARKS
GOODLAND KS    CLOUDY    61  39  44 S26G36    29.93F
HILL CITY KS   CLOUDY    52  33  48 S15       30.05F
IMPERIAL NEB   SUNNY     57  36  45 S20       29.94F
MCCOOK NEB     CLOUDY    53  33  46 S14       30.01F
AKRON CO       CLOUDY    70  36  28 SE21G29   29.86F
BURLINGTON CO  SUNNY     63  39  41 S26G33    29.92F
LIMON CO       CLOUDY    63  36  36 SE13G21   29.90F
$$

...UNOFFICIAL OBSERVATIONS...

CITY           SKY/WX    TMP DP  RH WIND       PRES   REMARKS
LENORA KS        N/A     50  32  50 SE12        N/A
NORTON KS      CLOUDY    48  27  43 SE14G21   30.05R
SHARON SPRINGS   N/A     60  41  49 S20G28      N/A
TRENTON NEB      N/A     55  32  41 S12         N/A
YUMA CO        FAIR      64  34  32 SE20G25   29.88F
$$



USA.gov is the U.S. government's official web portal to all federal, state and local government web resources and services.